This is the latest recevied weather packets stored in our database for station/object JE7UPL-13. If no packets are shown the sender has not sent any weather packets the latest 10 day(s).
| Time | Temp. | Humidity | Pressure | Rain* | Wind** | Luminosity | Snow |
|---|---|---|---|---|---|---|---|
| 1788517834 | 20° C | 82% | 1009.3 hPa | 0 mm | - | - | - |
| 1788516906 | 20° C | 82% | 1009.1 hPa | 0 mm | - | - | - |
| 1788516006 | 20° C | 82% | 1009 hPa | 0 mm | - | - | - |
| 1788515106 | 20.56° C | 79% | 1008.6 hPa | 0 mm | - | - | - |
| 1788514206 | 21.11° C | 76% | 1008.5 hPa | 0 mm | - | - | - |
| 1788513305 | 21.67° C | 73% | 1008.6 hPa | 0 mm | - | - | - |
| 1788512406 | 22.22° C | 68% | 1008.3 hPa | 0 mm | - | - | - |
| 1788511506 | 22.22° C | 65% | 1008.2 hPa | 0 mm | - | - | - |
| 1788510606 | 23.33° C | 64% | 1008 hPa | 0 mm | - | - | - |
| 1788509706 | 23.33° C | 63% | 1007.9 hPa | 0 mm | - | - | - |
| 1788508806 | 23.89° C | 62% | 1008 hPa | 0 mm | - | - | - |
| 1788507905 | 23.33° C | 62% | 1007.8 hPa | 0 mm | - | - | - |
| 1788507006 | 23.33° C | 61% | 1007.9 hPa | 0 mm | - | - | - |
| 1788506106 | 24.44° C | 56% | 1007.9 hPa | 0 mm | - | - | - |
| 1788505207 | 22.78° C | 63% | 1007.6 hPa | 0 mm | - | - | - |
| 1788504306 | 23.89° C | 60% | 1007.6 hPa | 0 mm | - | - | - |
| 1788503436 | 23.89° C | 57% | 1007.4 hPa | 0 mm | - | - | - |
| 1788502505 | 23.89° C | 56% | 1007.2 hPa | 0 mm | - | - | - |
| 1788501607 | 23.89° C | 57% | 1007.4 hPa | 0 mm | - | - | - |
| 1788500706 | 25.56° C | 50% | 1007.3 hPa | 0 mm | - | - | - |
| 1788499806 | 25° C | 53% | 1007.1 hPa | 0 mm | - | - | - |
| 1788498905 | 25.56° C | 50% | 1007.3 hPa | 0 mm | - | - | - |
| 1788498006 | 25.56° C | 50% | 1007 hPa | 0 mm | - | - | - |
| 1788497105 | 24.44° C | 53% | 1006.7 hPa | 0 mm | - | - | - |
| 1788496206 | 24.44° C | 53% | 1006.6 hPa | 0 mm | - | - | - |
* Rain latest hour (hover to see other rain measurements)
** Current wind speed in m/s (hover to see current wind gust speed)